ARIANE 5 DEB (SYLDA), 40735

Orbit data source: Space-Track

ARIANE 5 DEB (SYLDA), 40735 is space debris in HEO originally from a launch on Wed, 15 Jul 2015 UTC launched from the French Guiana (FRGUI). Debris objects in space refer to the collection of defunct objects orbiting the Earth. Examples of debris include non-operational satellites, rocket bodies, and fragments generated from explosions, collisions, or faulty payload assembly.

Loading next visibility...
ARIANE 5 DEB (SYLDA) details
Identifier
40735, 2015-034D
Orbit
HEO
Last TLE update2 days ago
Origin
Flag of FRArianespace (FR)
ManufacturerADS/Bremen
MissionSpacecraft
Bus & MotorSYLDA 5, Unknown motor
Mass440 kg wet, 440 kg dry
Launch date (UTC)
2015-07-15 (9 years ago)
Launch vehicleUnknown
Launch site
French Guiana (FRGUI)
Object type
Payload
Rocket body
Debris
Shape & HBRCyl, 5.5 m
Radar Cross Section27.391 m², Large (>1 m²)

Expand to show TLE details & history

TLE from 2 days ago
0 ARIANE 5 DEB (SYLDA)
1 40735U 15034D   24359.58685550  .00123792  00000-0  11990-1 0  9992
2 40735   4.0454  27.2289 6237281 279.9981  19.0502  3.72408677 97683
Epoch: 2024-12-24T14:05Z
Definitive object data (Epoch: 2024-12-24T14:05:04.315Z)
Latitude0.00001°
Longitude82.24846°
Altitude3,304.473 km
Speed7.724 km/s
True Right ascension01h 48m 26s
True Declination0° 00' 00"
Sunlit
Object was in daylight at TLE epoch
Visualization TLE readout
Latitude-0.54072°
Longitude-91.51041°
Altitude5,003.211 km
Speed6.881 km/s
Apparent Right ascension15h 55m 13s
Apparent Declination-21° 36' 54"
Sunlit
Object is in daylight
Visualization observer readout
Local Sidereal Time09:42:40
Azimuth105.068° ESE
Elevation-15.983°
Doppler factor1
Orbital elements
Apogee altitude22,177.871 km
Perigee altitude239.242 km
Semi-major axis17,586.693 km
Eccentricity0.6237281
Inclination4.0454°
RAAN27.2289°
Arg. of periapsis279.9981°
True anomaly79.6913°
Mean anomaly19.0502°
Eccentric anomaly43.77328°
Mean motion0.93061 °/min
BSTAR0.01199
Orbital period386.84 mins
Loading maneuver chart data...
Loading historical data...
Loading historical data...
Loading historical data...
Loading historical data...
Loading historical data...
Loading historical data...
Loading historical data...

ARIANE 5 DEB (SYLDA) Visibility forecast

Observer location: undefined°, undefined

Span
Click to sort rows by Start time (UTC) header in descending order
Start Az.
Max El. time (UTC)
Max El. Az.
Max El.
End time (UTC)
End Az.
218 mins2024-12-27 06:43:30.643Z230.265° WSW2024-12-27 09:15:30.643Z183.811° SSW35.201°2024-12-27 10:21:30.643Z179.312° S
|